SILO ALERT LOG


Silo ID Alert Type Alert Message Silo Type Points Depth (mm) Strength Temperature (°C) Humidity (%) Height (mm) Volume (㎥) Weight (t) Flag Time
DJSAD03 Humidity 습도센서 측정값이 80% 초과 439 1835 6191 3.6 84.5 6944 287.482 181.746 0 2024-01-03 23:39:40.000
DJSAD01 Humidity 습도센서 측정값이 80% 초과 449 1483 7388 2.4 88.8 7296 302.051 190.956 0 2024-01-03 23:39:40.000
DJSAD02 Humidity 습도센서 측정값이 80% 초과 473 856 7347 3 87.8 7923 328.007 207.366 13 2024-01-03 23:39:40.000
DJDJD03 Humidity 습도센서 측정값이 80% 초과 62 4237 5163 3.6 80.3 3442 417.116 263.701 0 2024-01-03 23:39:40.000
DJHNR01 Humidity 습도센서 측정값이 80% 초과 호퍼 471 4308 4903 5.7 99.9 11071 472.749 298.872 13 2024-01-03 23:39:34.000
DJSSD04 Temperature 온도센서 상태 이상 0 8200 0 -999 -999 -120 -16.702 0 31 2024-01-03 23:39:33.000
DJSAD18 Humidity 습도센서 측정값이 80% 초과 111 1402 5651 5.6 80.8 6177 615.157 388.902 11 2024-01-03 23:39:32.000
DJSSD05 Temperature 온도센서 측정값이 0도 미만 833 2550 4876 -45.4 43.8 5529 769.553 486.511 0 2024-01-03 23:39:32.000
DJSAD12 Humidity 습도센서 측정값이 80% 초과 0 7700 0 4.1 86 -120 -17.075 0 31 2024-01-03 23:39:32.000
DJSAD08 Humidity 습도센서 측정값이 80% 초과 630 2513 4956 8 83.4 5066 720.943 455.78 12 2024-01-03 23:39:32.000
DJSSD01 Humidity 습도센서 측정값이 80% 초과 802 2576 4668 6.6 82.6 5503 765.947 484.232 0 2024-01-03 23:39:32.000
DJSSD11 Humidity 습도센서 측정값이 80% 초과 호퍼 447 7374 147 -0.5 83.3 3855 29.234 15.933 0 2024-01-03 23:39:31.000
DJSSD11 Temperature 온도센서 측정값이 0도 미만 호퍼 447 7374 147 -0.5 83.3 3855 29.234 15.933 0 2024-01-03 23:39:31.000
DJHNR11 Temperature 온도센서 측정값이 0도 미만 호퍼 91 3940 2933 -1.1 79.6 6439 84.956 53.709 0 2024-01-03 23:39:31.000
DJHNR14 Temperature 온도센서 측정값이 0도 미만 호퍼 461 6217 497 -1.1 99.9 4162 35.857 22.669 12 2024-01-03 23:39:31.000
DJHNR14 Humidity 습도센서 측정값이 80% 초과 호퍼 461 6217 497 -1.1 99.9 4162 35.857 22.669 12 2024-01-03 23:39:31.000
DJSSD09 Temperature 온도센서 측정값이 0도 미만 104 2989 2716 -45.4 0 4690 652.854 412.734 11 2024-01-03 23:39:31.000
DJSAD07 Humidity 습도센서 측정값이 80% 초과 657 2518 2634 4.8 85.5 5061 720.17 455.291 0 2024-01-03 23:39:31.000
DJHNR06 Humidity 습도센서 측정값이 80% 초과 444 2661 2803 4.3 81.7 5018 714.072 451.436 0 2024-01-03 23:39:31.000
DJHNR12 Humidity 습도센서 측정값이 80% 초과 호퍼 194 4375 184 -0.8 82.6 6004 75.585 47.785 11 2024-01-03 23:39:29.000

[첫 페이지] [10192] [10193] [10194] [10195] 10196 [10197] [10198] [10199] [10200] [마지막 페이지]